sat.trackr.live / text

‹ back to catalog

2025-155M

NORAD 64887 · 2025-155M

PAYLOAD ACTIVE UNKNOWN

§ Identity

Operator
Country
TBD
Launch date
2025-07-25
Launch site
VOSTO
Launch vehicle
Mass (kg)
RCS (m²)

External: N2YO · Heavens-Above · Gunter

§ Orbital elements

Epoch: 2026-05-25T03:14:01.536000Z

Period
93.69 min
Inclination
97.4490°
Eccentricity
0.0004801
Mean motion
15.36968994 rev/d
Perigee alt
451.8 km
Apogee alt
458.4 km
Semi-major
6,833.2 km
B*
7.1206e-4
RAAN
115.0853°
Arg perigee
226.6152°
Mean anomaly
133.4693°
Rev number
7,734

§ Raw data

2025-155M1 64887U 25155M   26145.13474000  .00025728  00000+0  71206-3 0  99902 64887  97.4490 115.0853 0004801 226.6152 133.4693 15.36968994 77348

JSON: /api/v1/satellites/64887 · /tle

For live sub-satellite position, see the globe view (requires WebGL).

§ Visibility from observer

Set your observer location to see the next 7 days of passes ≥ 10°. The values pass through the URL so the page stays shareable.

No JS? Fill the form by hand. The geolocation button needs JavaScript.